Flag for Canada Weather past 2 weeks in Corner Brook, Newfoundland and Labrador, Canada

Now
63 °F

Partly sunny.


Feels Like: 63 °F
Forecast: 51 / 60 °F
Wind: 14 mph from Southwest

Location: Deer Lake

Current Time: Jun 30, 2015 at 2:44:25 PM

Latest Report: Jun 30, 2015 at 1:30 PM


Visibility: 15 mi

Pressure: 29.85 "Hg

Humidity: 73%

Dew point: 54 °F

Location of Corner BrookLocation

Historic Weather in Corner Brook — Graph

°F

Corner Brook temperature yesterday

Maximum temperature yesterday: 64 °F (at 1:30 PM)
Minimum temperature yesterday: 45 °F (at 5:30 AM)
Average temperature yesterday: 56 °F

Past Weeks' High & Low Weather Summary

 TemperatureHumidityPressure
High77 °F (Jun 28, 2:30 PM)100% (Jun 16, 3:30 AM)30.14 "Hg (Jun 16, 3:30 AM)
Low36 °F (Jun 16, 3:30 AM)31% (Jun 21, 4:30 PM)29.50 "Hg (Jun 17, 11:30 AM)
Average55 °F71%29.93 "Hg
* Reported Jun 15 1:30 PM — Jun 30 1:30 PM, Corner Brook, Weather by CustomWeather, © 2015

Note: Actual official high and low records may vary slightly from our data, if they occured in-between our weather recording intervals... More about our weather records

Advertising

Corner Brook weather history for previous 24 hours

 ConditionsComfort  
Time TempWeatherWind HumidityBarometerVisibility
1:30 PM
Tue, Jun 30
63 °FPartly sunny.14 mph73%29.85 "Hg15 mi
12:30 PM63 °FPartly sunny.9 mph68%29.85 "Hg15 mi
11:30 AM63 °FPartly sunny.10 mph68%29.84 "Hg15 mi
10:30 AM61 °FPartly sunny.15 mph72%29.84 "Hg15 mi
9:30 AM59 °FPartly sunny.14 mph82%29.85 "Hg15 mi
8:30 AM55 °FPartly sunny.3 mph94%29.84 "Hg12 mi
7:30 AM54 °FSprinkles. Low clouds.No wind94%29.83 "Hg12 mi
6:30 AM52 °FSprinkles. Overcast.3 mph100%29.83 "Hg15 mi
5:30 AM52 °FSprinkles. Overcast.5 mph100%29.83 "Hg15 mi
4:30 AM52 °FSprinkles. Overcast.3 mph100%29.82 "Hg10 mi
3:30 AM54 °FSprinkles. Overcast.2 mph94%29.82 "Hg10 mi
2:30 AM54 °FOvercast.3 mph88%29.82 "Hg15 mi
1:30 AM54 °FOvercast.6 mph88%29.83 "Hg15 mi
12:30 AM54 °FSprinkles. Overcast.7 mph88%29.85 "Hg15 mi
11:30 PM
Mon, Jun 29
54 °FSprinkles. Overcast.9 mph88%29.87 "Hg10 mi
10:30 PM54 °FOvercast.9 mph88%29.89 "Hg15 mi
9:30 PM55 °FOvercast.14 mph77%29.89 "Hg15 mi
8:30 PM55 °FOvercast.10 mph77%29.90 "Hg15 mi
7:30 PM57 °FOvercast.16 mph72%29.91 "Hg15 mi
6:30 PM59 °FMostly cloudy.17 mph68%29.92 "Hg15 mi
5:30 PM61 °FOvercast.17 mph63%29.94 "Hg15 mi
4:30 PM63 °FPartly sunny.17 mph56%29.96 "Hg15 mi
3:30 PM63 °FOvercast.13 mph59%30.00 "Hg15 mi
2:30 PM64 °FOvercast.9 mph56%30.02 "Hg15 mi
Weather by CustomWeather, © 2015

See weather overviewHow to use our weather pages